Regional Weather Roundup
Issued by NWS Newport/Morehead, NC

Home | Current Version | Previous Version | Text Only | Print | Product List | Glossary On
Versions: 1 2 3 4 5 6 7 8 9 10 11 12 13 14 15 16 17 18 19 20 21 22 23 24 25 26 27 28 29 30 31 32 33 34 35 36 37 38 39 40 41 42 43 44 45 46 47 48 49 50
000
ASUS42 KMHX 240925
RWRMHX
WEATHER ROUNDUP FOR EASTERN NORTH CAROLINA
NATIONAL WEATHER SERVICE NEWPORT/MOREHEAD CITY NC
500 AM EDT FRI MAR 24 2017

NOTE: "FAIR" INDICATES FEW OR NO CLOUDS BELOW 12,000 FEET
WITH NO SIGNIFICANT WEATHER AND/OR OBSTRUCTIONS TO VISIBILITY

NCZ015>017-031-032-045>047-102-103-241000-
NORTH COAST

CITY           SKY/WX    TMP DP  RH WIND       PRES   REMARKS
EDENTON        NOT AVBL
ELIZABETH CITY CLEAR     33  29  85 CALM      30.55S
KITTY HAWK     NOT AVBL
MANTEO         CLEAR     35  31  87 E5        30.55S

$$

NCZ045>047-081-094-103-104-241000-
CENTRAL COAST

CITY           SKY/WX    TMP DP  RH WIND       PRES   REMARKS
FRISCO         CLEAR     45  37  73 NE7       30.53F

$$

NCZ095-097-098-100-101-241000-
SOUTHERN COAST

CITY           SKY/WX    TMP DP  RH WIND       PRES   REMARKS
BEAUFORT       CLEAR     42  36  79 NE6       30.52F
CEDAR ISLAND   NOT AVBL
JACKSONVILLE   CLEAR     37  33  85 N3        30.52F
PINEY ISLAND   SUNNY    N/A N/A N/A NE7       30.52F
WILMINGTON     CLEAR     35  33  92 N6        30.52S


$$

NCZ011>013-027>030-043-044-078>080-089-090>093-098-241000-
COASTAL PLAIN

CITY           SKY/WX    TMP DP  RH WIND       PRES   REMARKS
AHOSKIE        NOT AVBL
CLINTON        CLEAR     36  33  88 CALM      30.54R
ELIZABETHTOWN  CLEAR     36  33  90 CALM      30.52S
GOLDSBORO      CLEAR     33  33  99 CALM      30.52F
GREENVILLE     CLEAR     30  30 100 CALM      30.54R
HAVELOCK       CLEAR     40  35  83 NE5       30.53F
KENANSVILLE    CLEAR     30  30 100 CALM      30.53S
KINSTON        CLEAR     31  30  94 CALM      30.54F
NEW BERN       CLEAR     35  32  88 CALM      30.54F
RICHLANDS      CLEAR     32  30  92 NE6       30.53F
ROCKY MOUNT    CLEAR     31  31 100 CALM      30.54F FOG
WASHINGTON     CLEAR     31  27  86 CALM      30.54S
WHITEVILLE     CLEAR     39  34  83 NE6       30.51S

$$

AMZ130-135-150-152-154-156-158-170-250-252-270-ANZ085-086-088-633-658-670-241000-
MARINE OBSERVATIONS

STATION/POSITION TIME  TEMP    WIND        PRES    WAVE   SWELL
                       AIR SEA DIR/SP/G            HT/PER HT/PER
                 (UTC) (F)     (DEG/KT/KT) (MB)    (FT/S) (FT/S)
CHESAPEAKE LIGHT NOT AVBL
64 E VA BEACH    0850   45 49   90/  6/  8 1034.2    3/ 7   3/ 7
DUCK             0900   43 47  110/  6/  7 1033.8
2 E DUCK         0900      47                N/A     3/ 9   2/11
OREGON INLET     0900   44 49   60/  5/  8 1034.0
13E OREGON INLT  NOT AVBL
HATTERAS CG      0900   45 51   50/  5/  8 1033.3
DIAMOND BUOY     0850   57 74  160/ 10/ 14 1033.5    7/11   7/11
CAPE LOOKOUT     0900   47      10/ 11/ 13 1032.7
BEAUFORT LAB     0900   43 50   30/  7/  8 1032.3
30 SE NEW RVR IN 0808   60     130/  6/ 10 1032.9
30 SE NEW RVR IN 0843      69                N/A     4/ 8   2/11
27 SE WRIGHTSVLE 0808   59 62   40/ 12/ 17 1031.9
5 SE WRIGHTSVLE  0808   51 56   60/ 14/ 21 1032.8
225 S CAPE HAT   0850   62 73   60/ 16/ 21 1031.1    6/10   5/10
41 SE CHARLESTON 0850   66 71  120/ 12/ 16 1030.1    5/ 6   3/ 6

$$



USA.gov is the U.S. government's official web portal to all federal, state and local government web resources and services.